Current Version              Previous Version:    01  02  03  04  05  06  07  08  09  10  11  12  13  14  15  16  17  18  19  20  21  22  23  24  25  26  27  28  29  30  
   31  32  33  34  35  36  37  38  39  40  41  42  43  44  45  46  47  48  49  50  51  52  53  54  55  56  57  58  59  60  

[Printable]
666
ASUS44 KFWD 201001
RWRTX
NORTH TEXAS HOURLY WEATHER ROUNDUP
NATIONAL WEATHER SERVICE FORT WORTH TX
500 AM CDT WED AUG 20 2014

NOTE: "FAIR" INDICATES FEW OR NO CLOUDS BELOW 12,000 FEET WITH NO
SIGNIFICANT WEATHER AND/OR OBSTRUCTIONS TO VISIBILITY.

TXZ118-119-201100-
DALLAS/FORT WORTH METROPLEX

CITY           SKY/WX    TMP DP  RH WIND       PRES   REMARKS
DFW AIRPORT    CLOUDY    82  69  64 S15       29.89S
DALLAS LOVE    CLOUDY    81  69  67 S10       29.90S
FTW MEACHAM    CLOUDY    81  70  69 S12       29.89S
DAL-EXECUTIVE  CLOUDY    80  70  71 VRB5      29.90R
FTW-ALLIANCE   CLOUDY    79  69  71 S9        29.89R
FTW-NAS-JRB    CLOUDY    82  68  62 S14       29.93S
ARLINGTON      CLOUDY    80  69  69 S9        29.90R
GRAND PRAIRIE  CLOUDY    80  68  67 S9        29.91S
ADDISON        CLOUDY    82  66  59 S10       29.92S
MESQUITE       CLOUDY    78  71  78 S6        29.92R
LANCASTER      CLOUDY    77  70  77 S7        29.92R
$$

TXZ091>094-102>105-117-120-121-131>134-201100-
NORTH CENTRAL TEXAS

CITY           SKY/WX    TMP DP  RH WIND       PRES   REMARKS
SHRMAN/DENISON DRIZZLE   76  71  84 S6        29.92R
GAINESVILLE    MOCLDY    76  70  80 SE9       29.92S
BOWIE          PTCLDY    77  69  77 S8        29.90R
BRIDGEPORT     MOCLDY    79  67  66 SE5       29.91R
DECATUR        MOCLDY    78  68  71 S12G18    29.91S
DENTON         CLOUDY    79  69  71 S10       29.90R
MCKINNEY       CLOUDY    79  70  74 MISG      29.91R
GREENVILLE     CLOUDY    77  70  78 S6        29.93R
ROCKWALL       CLOUDY    78  72  82 S6        29.91R
TERRELL        CLOUDY    79  74  84 S7        29.93R
WAXAHACHIE     CLOUDY    76  69  79 S7        29.92S
CLEBURNE       CLOUDY    79  73  83 S9        29.92S
GRANBURY       CLOUDY    82  69  65 SE9       29.91R
$$

TXZ083>090-098>101-113>116-127>130-139>142-154-155-201100-
WESTERN NORTH TEXAS

CITY           SKY/WX    TMP DP  RH WIND       PRES   REMARKS
WICHITA FALLS  CLEAR     78  67  68 S12       29.86S
WF-KICKAPOO    CLEAR     77  65  67 S6        29.88S
VERNON         CLEAR     78  62  57 S7        29.87R
ABILENE        CLEAR     77  67  71 S14       29.90R
BRECKENRIDGE   CLEAR     81  63  54 S14       29.88S
MINERAL WELLS  PTCLDY    78  69  73 SE7       29.89R
STEPHENVILLE   MOCLDY    77  66  68 S8        29.94S
COMANCHE       MOCLDY    77  64  63 S12       29.92S
BROWNWOOD      CLOUDY    77  63  61 S15G23    29.92R
COLEMAN        CLEAR     75  65  72 S10       29.92S
BRADY          CLEAR     73  64  73 SE8       29.94R
$$

TXZ143>147-156>162-174-175-201100-
CENTRAL TEXAS

CITY           SKY/WX    TMP DP  RH WIND       PRES   REMARKS
WACO           MOCLDY    79  71  76 S12       29.91S
WACO-MCGREGOR  MOCLDY    79  68  69 S10       29.93R
HILLSBORO      HAZE      78  69  72 S7        29.92R VSB 1
CORSICANA      CLOUDY    78  72  81 S10       29.93S
MEXIA          CLOUDY    76  73  90 S5        29.92R
TEMPLE         MOCLDY    77  68  73 S12       29.92R
KILLEEN        MOCLDY    79  72  78 S12       29.93R
KILLEEN-SKYLRK CLOUDY    79  66  65 S10G16    29.92S
FORT HOOD      CLOUDY    80  71  74 S8        29.93R
HAMILTON       MOCLDY    78  67  70 S12G22    29.94R
LAMPASAS       PTCLDY    76  71  86 S5        29.93R
$$

TXZ095>097-106>112-122>126-135>138-148>153-164>167-201100-
EAST TEXAS

CITY           SKY/WX    TMP DP  RH WIND       PRES   REMARKS
PARIS          PTCLDY    72  64  78 SE5       29.94R
SULPHUR SPRNGS CLOUDY    77  70  79 SE5       29.95S
CLARKSVILLE    PTCLDY    72  70  93 SE5       29.93S
MOUNT PLEASANT CLEAR     70  68  95 CALM      29.96R
MINEOLA        CLOUDY    77  73  88 CALM      29.95R
TYLER          CLOUDY    75  72  90 S8        29.94R
LONGVIEW       CLEAR     74  70  87 S9        29.95R
MARSHALL       CLEAR     73  70  89 S3        29.98R
ATHENS         CLOUDY    73  72  94 S6        29.93S
PALESTINE      MOCLDY    75  74  96 S3        29.95S
JACKSONVILLE   CLOUDY    74  73  95 S9        29.97S
HENDERSON      CLOUDY    73  72  97 CALM      29.97R
NACOGDOCHES    PTCLDY    72  70  94 SE5       29.97R
LUFKIN         MOCLDY    75  71  87 SE5       29.96R
$$

SUPPLEMENTAL OBSERVATIONS (CENTRAL)

CITY           SKY/WX    TMP DP  RH WIND       PRES   REMARKS
$$

SUPPLEMENTAL OBSERVATIONS (WEST)

CITY           SKY/WX    TMP DP  RH WIND       PRES   REMARKS
$$

SUPPLEMENTAL OBSERVATIONS (EAST)

CITY           SKY/WX    TMP DP  RH WIND       PRES   REMARKS
$$

SUPPLEMENTAL OBSERVATIONS ARE A COLLECTION OF AUTOMATED INSTRUMENTS
THAT ARE MAINTAINED BY A VARIETY OF FEDERAL AND STATE AGENCIES.
CERTAIN ELEMENTS...SUCH AS HUMIDITY VALUES AND SUSTAINED WIND
SPEEDS...MAY BE APPROXIMATED.